sat.trackr.live / text

‹ back to catalog

KUIPER-00020

NORAD 63735 · 2025-088M

PAYLOAD ACTIVE UNKNOWN

§ Identity

Operator
Country
US
Launch date
2025-04-28
Launch site
AFETR
Launch vehicle
Mass (kg)
RCS (m²)

External: N2YO · Heavens-Above · Gunter

§ Orbital elements

Epoch: 2026-05-25T05:32:53.094048Z

Period
97.30 min
Inclination
51.9014°
Eccentricity
0.0001174
Mean motion
14.79949638 rev/d
Perigee alt
628.7 km
Apogee alt
630.3 km
Semi-major
7,007.6 km
B*
1.8145e-4
RAAN
124.6318°
Arg perigee
4.0671°
Mean anomaly
356.0300°
Rev number
5,899

§ Raw data

KUIPER-000201 63735U 25088M   26145.23117007  .00001163  00000+0  18145-3 0  99982 63735  51.9014 124.6318 0001174   4.0671 356.0300 14.79949638 58990

JSON: /api/v1/satellites/63735 · /tle

For live sub-satellite position, see the globe view (requires WebGL).

§ Visibility from observer

Set your observer location to see the next 7 days of passes ≥ 10°. The values pass through the URL so the page stays shareable.

No JS? Fill the form by hand. The geolocation button needs JavaScript.